Location: Newark
(42.8481°N, 0.4872°E)
Time: 17:43:10
(UTC+00:00)

Vanguard 2 - Pass Details

Date: 04 November 2020
Orbit: 554 x 2937 km, 32.9° (Epoch: 24 November)

Event Time Altitude Azimuth Distance (km) Brightness Sun altitude
Rises 17:53:43 0° 238° (WSW) 4,268 12.7 -12.8°
Reaches altitude 10° 17:56:18 10° 232° (SW) 3,568 11.9 -13.2°
Maximum altitude 18:05:27 47° 162° (SSE) 2,504 10.0 -14.9°
Enters shadow 18:16:13 18° 100° (E) 4,572 10.8 -16.9°
Drops below altitude 10° 18:19:40 10° 95° (E) 5,427 - -17.5°
Sets 18:24:37 0° 91° (E) 6,641 - -18.4°
